www.pogodaiklimat.ru

Погода и климат >> Архив погоды >> Россия >> Оренбургская область >> Соль-Илецк


ПОГОДА в Соль-Илецк

  • Прогноз погоды в Соль-Илецк
  • Монитор погоды в Соль-Илецк

АРХИВ ПОГОДЫ в Соль-Илецк

Время (UTC), дата Ветер
(напр.,м/с)
 
Видим.   Явления Облачность Т
(С)
Тd
(С)
f
(%)
Тe
(С)
Тes
(С)
Комфортность P
(гПа)
Po
(гПа)
Тmin
(С)
Tmax
(С)
R
(мм)
R24
(мм)
S
(см)
21 14.07 СЗ 3
{11}
10 км в посл. час гроза {ливн. осадки} 10/6 600 м
[Cb cap As op]
+19.9 +18.3 90 +23 +23 комфорт 1000.3 986.4
00 15.07 С 7-13
{15}
20 км {гроза, ливн. осадки} 10/4 600 м
[Cb cap As op]
+17.8 +15.7 88 +17 +17 996.3 982.4
03 15.07 З 4
{15}
20 км 10/9 300 м
[Frnb As trans]
+18.2 +16.3 89 +18 +18 998.7 984.7 +15.2 12
06 15.07 З 4-10
{12}
20 км 10/8 1000 м
[Cb cap As trans]
+16.7 +14.8 89 +16 +17 1000.8 987.9
09 15.07 З 6-11
{14}
20 км 8/8 600 м
[Cb cap]
+22.2 +13.4 57 +25 +26 комфорт 1004.4 990.5
12 15.07 СЗ 5-11
{13}
20 км 6/6 600 м
[Cb cap]
+24.4 +11.9 46 +26 +28 жарко 1006.1 992.3
15 15.07 СЗ 3
{12}
20 км ясно +23.6 +12.6 50 +26 +26 жарко 1007.2 993.4 +24.7
18 15.07 СВ 1 10 км ясно +17.7 +13.0 74 +19 +19 1009.4 995.3
21 15.07 штиль 0 10 км ясно +14.3 +12.3 88 +14 +14 1010.3 996.0
00 16.07 штиль 0 20 км ясно +11.6 +10.4 92 +11 +11 1011.8 997.3
03 16.07 штиль 0 20 км ясно +17.7 +14.1 79 +18 +22 1012.7 998.5 +10.9
06 16.07 СЗ 1 20 км 3/0
[Ci fib]
+24.4 +13.3 50 +27 +41 жарко 1012.7 998.8
09 16.07 СЗ 2 20 км 4/0
[Ci fib]
+27.7 +10.3 34 +28 +43 жарко 1012.3 998.5
12 16.07 СВ 2 20 км 8/0
[Cc]
+27.7 +10.4 34 +28 +35 жарко 1011.8 998.1
15 16.07 СВ 1 20 км 6/4 600 м
[Cb cap Ac cast Cs]
+26.7 +10.2 36 +27 +28 жарко 1012.1 998.3 +28.2
18 16.07 СВ 2 10 км 10/6 600 м
[Cb cap Ac trans Cs]
+22.1 +10.6 48 +24 +24 комфорт 1012.3 998.3
21 16.07 СВ 2 10 км 10/0
[Cs]
+21.6 +10.2 48 +23 +23 комфорт 1012.8 998.8
00 17.07 СВ 1 20 км в посл. час ливневой дождь 10/8 600 м
[Cb cap Cc]
+20.3 +12.0 59 +23 +23 комфорт 1012.9 998.9
03 17.07 В 2 20 км 10/8 600 м
[Cb cap Cc]
+20.0 +12.9 64 +22 +23 комфорт 1012.5 998.4 +18.5 0.3
06 17.07 В 1 20 км 8/6 1000 м
[Sc Ac trans]
+27.2 +12.6 40 +29 +33 жарко 1011.7 998.0
09 17.07 СВ 2 20 км 9/3 1000 м
[Cu hum Cs]
+29.9 +11.5 32 +30 +40 жарко 1010.9 997.3
12 17.07 С 4 10 км слаб. ливневой дождь 10/8 600 м
[Cb cap As op]
+21.7 +15.0 66 +25 +25 комфорт 1011.9 997.9
15 17.07 СВ 5
{11}
20 км {ливн. осадки} 8/4 600 м
[Cb cap Ac trans]
+21.8 +14.9 65 +25 +25 комфорт 1009.4 995.4 +30.3 2
18 17.07 СВ 2 10 км {ливн. осадки} 6/6 600 м
[Cb cap]
+20.2 +14.9 72 +23 +23 комфорт 1009.2 995.2
21 17.07 В 2 10 км 4/4 1000 м
[Sc]
+19.5 +13.7 69 +22 +22 комфорт 1007.8 993.8
00 18.07 СВ 1 20 км 8/8 600 м
[Cb cap]
+18.5 +13.4 72 +20 +20 1006.6 992.5
03 18.07 В 3 20 км 8/8 600 м
[Cb cap]
+22.5 +11.6 50 +25 +25 комфорт 1006.2 992.4 +18.1
06 18.07 В 3 20 км ливневые осадки, в посл. час гроза [макс. диам. градин 3 мм] 9/9 600 м
[Cb calv]
+20.8 +15.8 73 +24 +26 комфорт 1006.7 992.7
09 18.07 ЮВ 3 20 км {гроза, ливн. осадки} 9/9 600 м
[Cb cap]
+28.7 +19.5 58 +35 +36 очень
душно
1004.7 991.2
12 18.07 З 3
{10}
20 км {гроза, ливн. осадки} 3/1 1000 м
[Cu hum Cs]
+35.3 +13.1 26 +36 +42 очень
жарко
1004.0 990.7
15 18.07 З 2 20 км 4/0
[Ac cast]
+30.8 +12.9 33 +32 +32 жарко 1005.3 991.8 +35.9 11
18 18.07 штиль 0 10 км 4/0
[Ac cast]
+21.7 +16.1 70 +25 +25 комфорт 1006.6 992.7
21 18.07 штиль 0 10 км 3/0
[Ac cuf]
+20.0 +17.9 88 +23 +23 комфорт 1007.3 993.3
00 19.07 СВ 1 20 км ясно +18.9 +16.2 84 +21 +21 комфорт 1008.1 994.0
03 19.07 СВ 2 20 км 8/0
[Ac cast Cc]
+25.0 +17.5 63 +29 +31 душно 1007.6 993.8 +17.7
06 19.07 СВ 3 20 км 8/0
[Ac cast Cc]
+30.3 +16.4 43 +34 +39 очень
душно
1006.8 993.3
09 19.07 СВ 3 20 км 8/3 1000 м
[Cu hum Cs]
+33.3 +14.0 31 +34 +43 очень
жарко
1005.6 992.2
12 19.07 С 5
{10}
20 км 8/6 600 м
[Cb cap Ac cast Cs]
+32.2 +17.8 42 +36 +38 очень
душно
1004.5 991.1
15 19.07 С 5-10
{10}
20 км 10/8
[Cb cap Cs]
+29.4 +18.1 51 +34 +34 очень
душно
1004.7 991.2 +35.7
18 19.07 С 5
{11}
10 км 8/8 600 м
[Cb cap]
+26.3 +15.7 52 +29 +29 жарко 1005.9 992.2
21 19.07 С 5-10
{14}
10 км ясно +23.3 +16.4 65 +28 +28 душно 1005.8 992.0
00 20.07 С 5
{12}
20 км ясно +22.3 +14.8 63 +26 +26 жарко 1006.2 992.4
03 20.07 С 6-11
{12}
20 км ясно +23.8 +17.4 67 +28 +29 душно 1007.2 993.4 +21.9
06 20.07 С 6-11
{13}
20 км 3/0
[Ci sp]
+28.6 +18.0 53 +33 +38 очень
душно
1007.6 994.1
09 20.07 СЗ 7-13
{15}
20 км 8/0
[Cc]
+30.9 +15.1 38 +33 +37 душно 1008.2 994.7
12 20.07 СЗ 7-13
{14}
20 км 8/0
[Cs]
+31.0 +12.4 32 +32 +34 жарко 1009.0 995.5
15 20.07 СЗ 4
{13}
20 км 8/0
[Cs]
+29.7 +11.2 32 +30 +31 жарко 1009.8 996.2 +31.6
18 20.07 СЗ 4
{10}
10 км ясно +24.0 +11.0 44 +25 +25 комфорт 1011.3 997.4
21 20.07 СЗ 3 10 км ясно +21.5 +10.8 51 +23 +23 комфорт 1011.4 997.4
00 21.07 СЗ 4 20 км ясно +20.1 +11.1 56 +22 +22 комфорт 1012.3 998.2
03 21.07 СЗ 3 20 км ясно +22.0 +12.8 56 +25 +27 комфорт 1013.7 999.7 +19.5
06 21.07 С 5
{11}
20 км 1/1 1000 м
[Cu hum]
+27.4 +8.4 30 +27 +33 жарко 1014.1 1000.3
09 21.07 СЗ 5
{13}
20 км 4/4 1000 м
[Cu hum]
+29.3 +8.4 27 +29 +34 жарко 1014.0 1000.3
12 21.07 СЗ 4 20 км 3/3 1000 м
[Cu hum]
+30.0 +7.0 24 +29 +33 жарко 1013.4 999.7
15 21.07 СЗ 3 20 км ясно +28.8 +7.7 27 +28 +29 жарко 1013.3 999.6 +30.2

 

Местоположение метеостанции Соль-Илецк (Оренбургская область, Россия): широта 51.15 долгота 55.02 высота над уровнем моря 121 м.

В архиве по умолчанию представлена погода в Соль-Илецк за последнюю неделю. Архивные данные за месяц целиком и за предыдущие месяцы, начиная с января 2011 года, Вы можете получить, выбрав интересующий диапазон дат из раскрывающегося списка и нажав кнопку "Ввод!".


*Определитесь, кто Вы:
робот инопланетянин человек

Внимание! Время в таблицах - всемирное. Для получения местного времени необходимо прибавить поправку, которая равна 5 ч.

Смотрите также архив погоды в соседних городах и на ближайших метеорологических станциях:

Погода в Акбулаке (Оренбургская область, Россия) (45 км)
Погода в Новокуйбышевске (Самарская область, Россия) (45 км)
Погода в Оренбурге (Оренбургская область, Россия) (59 км)
Погода в Чингирлау (Западно-Казахстанская область, Казахстан) (65 км)
Погода в Татарской Каргале (Оренбургская область, Россия) (84 км)
Погода в Беляевке (Оренбургская область, Россия) (102 км)
Погода в Мартуке (Актюбинская область, Казахстан) (115 км)
Погода в Илеке (Оренбургская область, Россия) (122 км)
Погода в Новоалексеевке (Костанайская область, Казахстан) (123 км)
Погода в Аксае (Западно-Казахстанская область, Казахстан) (141 км)

Пояснения к столбцам:

Ветер - указаны скорость ветра в м/с - средняя за 10 мин, порывы в срок и между сроками (в фигурных скобках) и направление, откуда дует ветер: С - северный, СВ - северо-восточный, В - восточный, ЮВ - юго-восточный, Ю - южный, ЮЗ - юго-западный, З - западный, СЗ - северо-западный.
Видимость - горизонтальная дальность видимости в метрах или километрах. При видимости от 1 до 10 км при отсутствии осадков обычно наблюдается дымка, при ухудшении видимости до 1 км и менее - туман. В сухую погоду видимость может ухудшаться дымом, пылью или мглою.
Явления - указаны атмосферные явления, наблюдавшиеся в срок или в последний час перед сроком; фигурными скобками обозначены явления, наблюдавшиеся между сроками (за 1-3 часа до срока); квадратными скобками обозначены град или гололедные отложения с указанием их диаметра в мм.
Облачность - указаны через наклонную черту общая и нижняя облачность в баллах и высота нижней границы облаков в метрах; квадратными скобками обозначены формы облаков: Ci - перистые, Cs - перисто-слоистые, Cc - перисто-кучевые, Ac - высококучевые, As - высокослоистые, Sc - слоисто-кучевые, Ns - слоисто-дождевые, Cu - кучевые, Cb - кучево-дождевые. Подробнее классификацию облаков см. в Атласе облаков (PDF).
T - Температура воздуха - температура, измеренная на высоте 2 м над землей.
Td - Температура точки росы - температура, при понижении до которой содержащийся в воздухе водяной пар достигнет насыщения.
f - Относительная влажность воздуха - влажноcть воздуха, измеренная на высоте 2 м над землей.
Te - Эффективная температура - температура, которую ощущает одетый по сезону человек в тени. Характеристика душности погоды. При расчете учитывается влияние влажности воздуха и скорости ветра на теплоощущения человека.
Tes - Эффективная температура на солнце - температура, которую ощущает человек, с поправкой на солнечный нагрев. Характеристика знойности погоды. Зависит от высоты солнца над горизонтом, облачности и скорости ветра. Ночью, в пасмурную погоду, а также при ветре 12 м/с и более поправка равна нулю.
P - Атмосферное давление - приведенное к уровню моря атмосферное давление.
Po - Атмосферное давление - измеренное на уровне метеостанции атмосферное давление.
Tmin - Минимальная температура - минимум температуры воздуха на высоте 2 м над землей.
Tmax - Максимальная температура - максимум температуры воздуха на высоте 2 м над землей.
R - Количество осадков - Количество выпавших осадков за период времени, мм. При наведении курсора мыши на число - период времени, за который выпало указанное количество осадков.
R24 - Количество осадков - Количество выпавших осадков за 24 часа, мм.
S - Снежный покров - Высота снежного покрова, см. При наведении курсора мыши на число - состояние снежного покрова и степень покрытия местности в баллах.